Regional Weather Roundup
Issued by NWS

Home | Current Version | Previous Version | Graphics & Text | Print | Product List | Glossary On
Versions: 1 2 3 4 5 6 7 8 9 10 11 12 13 14 15 16 17 18 19 20 21 22 23 24 25 26 27 28 29 30 31 32 33 34 35 36 37 38 39 40 41 42 43 44 45 46 47 48 49 50
000
ASUS43 KBIS 230220
RWRND

NORTH DAKOTA REGIONAL WEATHER ROUNDUP
NATIONAL WEATHER SERVICE BISMARCK ND
900 PM CDT WED OCT 22 2014

NOTE: "FAIR" INDICATES FEW OR NO CLOUDS BELOW 12,000 FEET WITH NO
SIGNIFICANT WEATHER AND/OR OBSTRUCTIONS TO VISIBILITY.


NDZ001>003-009>011-017-230300-
NORTHWEST NORTH DAKOTA

CITY           SKY/WX    TMP DP  RH WIND       PRES   REMARKS
WILLISTON      CLEAR     49  33  54 W9        29.86R
MINOT          CLOUDY    56  42  59 SW5       29.82R
MINOT AFB      MOCLDY    53  44  71 SW5       29.81R
$$

NDZ018>021-031>035-040>046-230300-
SOUTHWEST NORTH DAKOTA

CITY           SKY/WX    TMP DP  RH WIND       PRES   REMARKS
BISMARCK       CLEAR     52  37  56 SW7       29.90R
DICKINSON      CLEAR     45  32  60 W9        29.91R
GARRISON         N/A     46  38  73 SW6       29.86R
HETTINGER ARPT CLEAR     42  29  59 NW3       29.96R
$$

NDZ004>008-012>016-024-026-027-054-230300-
NORTHEAST NORTH DAKOTA

CITY           SKY/WX    TMP DP  RH WIND       PRES   REMARKS
GRAND FORKS    CLOUDY    51  50  96 S8        29.84S
GRND FRKS AFB  CLOUDY    52  51  99 S8        29.84S
DEVILS LAKE    MOCLDY    54  41  62 SW10      29.81S
$$

NDZ022-023-025-028>030-036>039-047>053-230300-
SOUTHEAST NORTH DAKOTA

CITY           SKY/WX    TMP DP  RH WIND       PRES   REMARKS
FARGO          CLOUDY    56  53  90 SW9       29.89S
JAMESTOWN      CLEAR     50  46  86 SW7       29.87R
$$




USA.gov is the U.S. government's official web portal to all federal, state and local government web resources and services.